Location: Catstown
(52.4386°N, 7.2633°W)
Time: 13:22:53
(UTC+00:00)

MetOp-B - Pass Details

Date: 18 September 2020
Orbit: 819 x 821 km, 98.7° (Epoch: 26 October)

Event Time Altitude Azimuth Distance (km) Brightness Sun altitude
Exits shadow 21:22:25 49° 182° (S) 1,051 4.4 -24.2°
Maximum altitude 21:23:53 76° 256° (WSW) 850 4.2 -24.4°
Drops below altitude 10° 21:29:16 10° 342° (NNW) 2,429 7.3 -25.0°
Sets 21:31:38 0° 344° (NNW) 3,366 8.2 -25.3°
